User: anonymous   Login
Location: Unspecified
(0.0000°N, 0.0000°E)
Time: 08:40:47
(UTC+00:00)
Language:

CANX-2 - Orbit

View from above orbital plane
View from above orbital plane
View from above satellite
View from above satellite

Ground track
Ground track

The orbit data is extracted from the following two-line orbital elements,

1 32790U 08021H   23088.47685001  .00005886  00000-0  60217-3 0  9990
2 32790  97.7092  55.0149 0013894  22.9569 337.2267 14.90832275808792
Epoch (UTC): 29 March 2023 11:26:39
Eccentricity: 0.0013894
inclination: 97.7092°
perigee height: 585 km
apogee height: 605 km
right ascension of ascending node: 55.0149°
argument of perigee: 22.9569°
revolutions per day: 14.90832275
mean anomaly at epoch: 337.2267°
orbit number at epoch: 80879

The dashed part of the orbit path shows where the satellite is in the earth's shadow,  

DLR